#timestamp,LO_Frequency,Hit,StdDev 
1551564015.8,286046998.5,N
1551564035.6,286047003.8,N
1551564055.4,286047003.5,N
1551564075.3,286047003.8,N
1551564095.1,286047004.1,N
1551564115.8,286047001.4,N
1551564135.7,286047002.1,N
1551564155.5,286047002.2,N
1551564175.4,286047002.5,N
1551564195.2,286047002.0,N
1551564215.0,286047001.4,N
1551564215.9,286047001.4,N
1551564235.8,286047011.9,Y
1551564255.6,286047003.5,P
1551564275.4,286047003.5,N
1551564295.3,286047004.8,P
1551564315.1,286047007.6,Y
1551564335.9,286047001.5,P
1551564355.7,286047003.0,P
1551564375.5,286047001.8,N
1551564395.4,286046999.8,N
1551564415.2,286047007.2,Y
1551564435.1,286047007.0,P
1551564436.0,286047007.0,N
1551564455.8,286047003.3,N
1551564475.6,286047005.6,N
1551564495.5,286047004.9,N
1551564515.3,286047002.9,N
1551564535.2,286047001.6,N
1551564555.9,286046999.7,N
1551564575.7,286047000.1,N
1551564595.6,286047003.7,N
1551564615.4,286047001.6,N
1551564635.2,286047005.6,N
1551564655.1,286047005.5,N
1551564656.0,286047005.5,N
1551564675.8,286047004.0,N
1551564695.7,286047002.8,N
1551564715.5,286047000.4,N
1551564735.3,286046998.1,N
1551564755.2,286046998.3,N
1551564775.0,286046999.0,N
1551564775.9,286046999.0,N
1551564795.8,286047002.0,N
1551564815.6,286047002.2,N
1551564835.4,286047002.0,N
1551564855.3,286047001.4,N
1551564875.1,286047003.6,N
1551564895.8,286047001.3,N
1551564915.7,286047000.2,N
1551564935.5,286047000.3,N
1551564955.4,286047000.4,N
1551564975.2,286047000.6,N
1551564995.0,286047000.8,N
1551564995.9,286047000.8,N
1551565015.8,286047000.6,N
1551565035.6,286047001.0,N
1551565055.5,286047000.3,N
1551565075.3,286047001.4,N
1551565095.1,286047001.8,N
1551565115.9,286047003.8,N
1551565135.7,286047001.9,N
1551565155.5,286047001.8,N
1551565175.4,286047003.3,N
1551565195.2,286047002.2,N
1551565215.1,286047001.0,N
1551565216.0,286047001.0,N
1551565235.8,286047000.7,N
1551565255.6,286046999.5,N
1551565275.5,286046998.9,N
1551565295.3,286047001.2,N
1551565315.1,286046999.9,N
1551565335.9,286046999.1,N
1551565355.7,286046997.4,N
1551565375.6,286046996.2,N
1551565395.4,286046994.7,Y
1551565415.2,286046992.3,P
1551565435.1,286046990.1,N
1551565436.0,286046990.1,N
1551565455.8,286046988.6,N
1551565475.7,286046988.9,N
1551565495.5,286046991.6,N
1551565515.3,286046989.4,N
1551565535.2,286046991.2,N
1551565555.0,286046990.6,N
1551565555.9,286046990.6,N
1551565575.8,286046990.1,Y
1551565595.6,286047000.6,P
1551565615.4,286046998.9,N
1551565635.3,286046996.9,N
1551565655.1,286046996.5,N
1551565675.8,286046999.3,N
1551565695.7,286046999.4,N
1551565715.5,286046997.5,N
1551565735.4,286046998.0,N
1551565755.2,286046995.3,N
1551565775.0,286047000.8,N
1551565775.9,286047000.8,N
1551565795.8,286046999.1,N
1551565815.6,286046997.0,N
1551565835.4,286046997.4,N
1551565855.3,286046996.9,N
1551565875.1,286046997.2,N
1551565895.9,286046996.9,N
1551565915.7,286046998.9,N
1551565935.5,286046997.1,N
1551565955.4,286046999.6,N
1551565975.2,286046995.0,N
1551565995.1,286046995.4,N
1551565996.0,286046995.4,N
1551566015.8,286046996.5,N
1551566035.6,286046998.8,N
1551566055.5,286046999.5,N
1551566075.3,286046999.4,N
1551566095.1,286046996.8,N
1551566115.9,286046997.9,N
1551566135.7,286046993.6,Y
1551566155.6,286046997.5,P
1551566175.4,286046996.5,P
1551566195.2,286046999.1,N
1551566215.1,286046996.6,Y
1551566216.0,286046996.6,P
1551566235.8,286046998.1,P
1551566255.7,286046999.3,N
1551566275.5,286047001.1,N
1551566295.3,286046999.8,N
1551566315.2,286047002.7,N
1551566335.0,286047000.7,N
1551566335.9,286047000.7,N
1551566355.7,286046999.9,N
1551566375.6,286047003.9,N
1551566395.4,286047000.2,N
1551566415.3,286047003.8,N
1551566435.1,286047003.9,N
1551566455.8,286047001.9,N
1551566475.7,286047002.0,N
1551566495.5,286046999.8,N
1551566515.3,286047000.2,N
1551566535.2,286046999.7,N
1551566555.0,286047002.4,N
1551566555.9,286047002.4,N
1551566575.8,286047003.7,N
1551566595.6,286047003.0,N
1551566615.4,286047004.1,N
1551566635.3,286047000.1,N
1551566655.1,286047000.8,N
1551566675.9,286046996.7,N
1551566695.7,286046996.9,N
1551566715.5,286047000.7,N
1551566735.4,286047011.9,Y
1551566755.2,286047003.9,P
1551566775.0,286047000.6,N
1551566776.0,286047000.6,N
1551566795.8,286046996.9,N
1551566815.6,286046999.4,N
1551566835.5,286046999.4,N
1551566855.3,286046997.9,N
1551566875.1,286046997.3,N
1551566895.9,286046995.2,N
1551566915.7,286046995.7,N
1551566935.6,286046998.0,N
1551566955.4,286046997.5,N
1551566975.2,286046995.7,N
1551566995.1,286046995.5,N
1551566996.0,286046995.5,N
1551567015.8,286046995.6,N
1551567035.6,286046998.5,N
1551567055.5,286046996.5,N
1551567075.3,286046998.2,N
1551567095.2,286046998.7,N
1551567115.9,286046999.0,N
1551567135.7,286046996.9,N
1551567155.6,286046998.8,N
1551567175.4,286046997.7,N
1551567195.2,286046997.7,N
1551567215.1,286046997.8,N
1551567216.0,286046997.8,N
1551567235.8,286046999.3,N
1551567255.7,286046999.2,N
1551567275.5,286046998.6,N
1551567295.3,286046998.7,N
1551567315.2,286046998.9,N
1551567335.0,286046999.0,N
1551567335.9,286046999.0,N
1551567355.8,286046997.1,N
1551567375.6,286046996.8,N
1551567395.4,286046999.0,N
1551567415.3,286047000.9,N
1551567435.1,286046999.8,N
1551567455.8,286046999.7,N
1551567475.7,286047005.6,Y
1551567495.5,286047007.4,P
1551567515.4,286047003.0,N
1551567535.2,286047007.6,N
1551567555.0,286047005.1,N
1551567555.9,286047005.1,N
1551567575.8,286047004.8,N
1551567595.6,286047005.3,N
